owner,sensor,date,latitude,longitude,vertical_datum,wind_speed,wind_to_direction,wind_speed_of_gust,qcFlag 
ADCP,ioos:station:NOAA.NDBC:WDEL1:1,2016-07-01T00:30:00Z,28.6620,-89.5510,41.0,1.1,196.0,99.0,'11111222,11111222,11144222' 
ADCP,ioos:station:NOAA.NDBC:WDEL1:1,2016-07-01T01:30:00Z,28.6620,-89.5510,41.0,1.0,205.0,99.0,'11111222,11111222,11144222' 
ADCP,ioos:station:NOAA.NDBC:WDEL1:1,2016-07-01T02:30:00Z,28.6620,-89.5510,41.0,1.4,192.0,99.0,'11111222,11111222,11144222' 
ADCP,ioos:station:NOAA.NDBC:WDEL1:1,2016-07-01T03:30:00Z,28.6620,-89.5510,41.0,1.1,141.0,99.0,'11111222,11111222,11144222' 
ADCP,ioos:station:NOAA.NDBC:WDEL1:1,2016-07-01T04:30:00Z,28.6620,-89.5510,41.0,1.4,148.0,99.0,'11111222,11111222,11144222' 
ADCP,ioos:station:NOAA.NDBC:WDEL1:1,2016-07-01T05:30:00Z,28.6620,-89.5510,41.0,0.9,139.0,99.0,'11111222,11111222,11144222' 
ADCP,ioos:station:NOAA.NDBC:WDEL1:1,2016-07-01T06:30:00Z,28.6620,-89.5510,41.0,0.9,198.0,99.0,'11111222,11111222,11144222' 
ADCP,ioos:station:NOAA.NDBC:WDEL1:1,2016-07-01T07:30:00Z,28.6620,-89.5510,41.0,2.0,204.0,99.0,'11111222,11111222,11144222' 
ADCP,ioos:station:NOAA.NDBC:WDEL1:1,2016-07-01T08:30:00Z,28.6620,-89.5510,41.0,1.9,221.0,99.0,'11111222,11111222,11144222' 
ADCP,ioos:station:NOAA.NDBC:WDEL1:1,2016-07-01T09:30:00Z,28.6620,-89.5510,41.0,2.4,237.0,99.0,'11111222,11111222,11144222' 
ADCP,ioos:station:NOAA.NDBC:WDEL1:1,2016-07-01T10:30:00Z,28.6620,-89.5510,41.0,1.2,262.0,99.0,'11111222,11111222,11144222' 
ADCP,ioos:station:NOAA.NDBC:WDEL1:1,2016-07-01T11:30:00Z,28.6620,-89.5510,41.0,2.0,250.0,99.0,'11111222,11111222,11144222' 
ADCP,ioos:station:NOAA.NDBC:WDEL1:1,2016-07-01T12:30:00Z,28.6620,-89.5510,41.0,1.1,257.0,99.0,'11111222,11111222,11144222' 
ADCP,ioos:station:NOAA.NDBC:WDEL1:1,2016-07-01T13:30:00Z,28.6620,-89.5510,41.0,0.2,355.0,99.0,'11111222,11111222,11144222' 
ADCP,ioos:station:NOAA.NDBC:WDEL1:1,2016-07-01T14:30:00Z,28.6620,-89.5510,41.0,0.9,273.0,99.0,'11111222,11111222,11144222' 
ADCP,ioos:station:NOAA.NDBC:WDEL1:1,2016-07-01T15:30:00Z,28.6620,-89.5510,41.0,0.1,332.0,99.0,'11111222,11111222,11144222' 
ADCP,ioos:station:NOAA.NDBC:WDEL1:1,2016-07-01T16:30:00Z,28.6620,-89.5510,41.0,0.3,328.0,99.0,'11111222,11111222,11144222' 
ADCP,ioos:station:NOAA.NDBC:WDEL1:1,2016-07-01T17:30:00Z,28.6620,-89.5510,41.0,0.5,344.0,99.0,'11111222,11111222,11144222' 
ADCP,ioos:station:NOAA.NDBC:WDEL1:1,2016-07-01T18:30:00Z,28.6620,-89.5510,41.0,0.4,346.0,99.0,'11111222,11111222,11144222' 
ADCP,ioos:station:NOAA.NDBC:WDEL1:1,2016-07-01T19:30:00Z,28.6620,-89.5510,41.0,0.3,326.0,99.0,'11111222,11111222,11144222' 
ADCP,ioos:station:NOAA.NDBC:WDEL1:1,2016-07-01T20:30:00Z,28.6620,-89.5510,41.0,0.2,12.0,99.0,'11111222,11111222,11144222' 
ADCP,ioos:station:NOAA.NDBC:WDEL1:1,2016-07-01T21:30:00Z,28.6620,-89.5510,41.0,0.4,237.0,99.0,'11111222,11111222,11144222' 
ADCP,ioos:station:NOAA.NDBC:WDEL1:1,2016-07-01T22:30:00Z,28.6620,-89.5510,41.0,0.2,337.0,99.0,'11111222,11111222,11144222' 
ADCP,ioos:station:NOAA.NDBC:WDEL1:1,2016-07-01T23:30:00Z,28.6620,-89.5510,41.0,0.4,6.0,99.0,'11111222,11111222,11144222' 
ADCP,ioos:station:NOAA.NDBC:WDEL1:1,2016-07-02T00:30:00Z,28.6620,-89.5510,41.0,0.1,287.0,99.0,'11111222,11111222,11144222' 
ADCP,ioos:station:NOAA.NDBC:WDEL1:1,2016-07-02T01:30:00Z,28.6620,-89.5510,41.0,0.2,332.0,99.0,'11111222,11111222,11144222' 
ADCP,ioos:station:NOAA.NDBC:WDEL1:1,2016-07-02T02:30:00Z,28.6620,-89.5510,41.0,0.7,241.0,99.0,'11111222,11111222,11144222' 
ADCP,ioos:station:NOAA.NDBC:WDEL1:1,2016-07-02T03:30:00Z,28.6620,-89.5510,41.0,0.6,239.0,99.0,'11111222,11111222,11144222' 
ADCP,ioos:station:NOAA.NDBC:WDEL1:1,2016-07-02T04:30:00Z,28.6620,-89.5510,41.0,0.2,184.0,99.0,'11111222,11111222,11144222' 
ADCP,ioos:station:NOAA.NDBC:WDEL1:1,2016-07-02T05:30:00Z,28.6620,-89.5510,41.0,0.7,230.0,99.0,'11111222,11111222,11144222' 
ADCP,ioos:station:NOAA.NDBC:WDEL1:1,2016-07-02T06:30:00Z,28.6620,-89.5510,41.0,1.0,199.0,99.0,'11111222,11111222,11144222' 
ADCP,ioos:station:NOAA.NDBC:WDEL1:1,2016-07-02T07:30:00Z,28.6620,-89.5510,41.0,1.6,196.0,99.0,'11111222,11111222,11144222' 
ADCP,ioos:station:NOAA.NDBC:WDEL1:1,2016-07-02T08:30:00Z,28.6620,-89.5510,41.0,2.2,215.0,99.0,'11111222,11111222,11144222' 
ADCP,ioos:station:NOAA.NDBC:WDEL1:1,2016-07-02T09:30:00Z,28.6620,-89.5510,41.0,2.0,239.0,99.0,'11111222,11111222,11144222' 
ADCP,ioos:station:NOAA.NDBC:WDEL1:1,2016-07-02T10:30:00Z,28.6620,-89.5510,41.0,0.5,263.0,99.0,'11111222,11111222,11144222' 
ADCP,ioos:station:NOAA.NDBC:WDEL1:1,2016-07-02T11:30:00Z,28.6620,-89.5510,41.0,0.5,261.0,99.0,'11111222,11111222,11144222' 
ADCP,ioos:station:NOAA.NDBC:WDEL1:1,2016-07-02T12:30:00Z,28.6620,-89.5510,41.0,0.1,319.0,99.0,'11111222,11111222,11144222' 
ADCP,ioos:station:NOAA.NDBC:WDEL1:1,2016-07-02T13:30:00Z,28.6620,-89.5510,41.0,0.2,358.0,99.0,'11111222,11111222,11144222' 
ADCP,ioos:station:NOAA.NDBC:WDEL1:1,2016-07-02T14:30:00Z,28.6620,-89.5510,41.0,0.2,339.0,99.0,'11111222,11111222,11144222' 
ADCP,ioos:station:NOAA.NDBC:WDEL1:1,2016-07-02T15:30:00Z,28.6620,-89.5510,41.0,0.3,328.0,99.0,'11111222,11111222,11144222' 
ADCP,ioos:station:NOAA.NDBC:WDEL1:1,2016-07-02T16:30:00Z,28.6620,-89.5510,41.0,0.1,317.0,99.0,'11111222,11111222,11144222' 
ADCP,ioos:station:NOAA.NDBC:WDEL1:1,2016-07-02T17:30:00Z,28.6620,-89.5510,41.0,0.6,12.0,99.0,'11111222,11111222,11144222' 
ADCP,ioos:station:NOAA.NDBC:WDEL1:1,2016-07-02T18:30:00Z,28.6620,-89.5510,41.0,0.4,36.0,99.0,'11111222,11111222,11144222' 
ADCP,ioos:station:NOAA.NDBC:WDEL1:1,2016-07-02T19:30:00Z,28.6620,-89.5510,41.0,0.8,135.0,99.0,'11111222,11111222,11144222' 
ADCP,ioos:station:NOAA.NDBC:WDEL1:1,2016-07-02T20:30:00Z,28.6620,-89.5510,41.0,1.1,179.0,99.0,'11111222,11111222,11144222' 
ADCP,ioos:station:NOAA.NDBC:WDEL1:1,2016-07-02T21:30:00Z,28.6620,-89.5510,41.0,1.1,153.0,99.0,'11111222,11111222,11144222' 
ADCP,ioos:station:NOAA.NDBC:WDEL1:1,2016-07-02T22:30:00Z,28.6620,-89.5510,41.0,0.9,193.0,99.0,'11111222,11111222,11144222' 
ADCP,ioos:station:NOAA.NDBC:WDEL1:1,2016-07-02T23:30:00Z,28.6620,-89.5510,41.0,1.2,205.0,99.0,'11111222,11111222,11144222' 
ADCP,ioos:station:NOAA.NDBC:WDEL1:1,2016-07-03T00:30:00Z,28.6620,-89.5510,41.0,1.4,227.0,99.0,'11111222,11111222,11144222' 
ADCP,ioos:station:NOAA.NDBC:WDEL1:1,2016-07-03T01:30:00Z,28.6620,-89.5510,41.0,1.2,218.0,99.0,'11111222,11111222,11144222' 
ADCP,ioos:station:NOAA.NDBC:WDEL1:1,2016-07-03T02:30:00Z,28.6620,-89.5510,41.0,1.2,194.0,99.0,'11111222,11111222,11144222' 
ADCP,ioos:station:NOAA.NDBC:WDEL1:1,2016-07-03T03:30:00Z,28.6620,-89.5510,41.0,1.0,178.0,99.0,'11111222,11111222,11144222' 
ADCP,ioos:station:NOAA.NDBC:WDEL1:1,2016-07-03T04:30:00Z,28.6620,-89.5510,41.0,1.4,201.0,99.0,'11111222,11111222,11144222' 
ADCP,ioos:station:NOAA.NDBC:WDEL1:1,2016-07-03T05:30:00Z,28.6620,-89.5510,41.0,1.9,197.0,99.0,'11111222,11111222,11144222' 
ADCP,ioos:station:NOAA.NDBC:WDEL1:1,2016-07-03T06:30:00Z,28.6620,-89.5510,41.0,1.6,211.0,99.0,'11111222,11111222,11144222' 
ADCP,ioos:station:NOAA.NDBC:WDEL1:1,2016-07-03T07:30:00Z,28.6620,-89.5510,41.0,2.0,228.0,99.0,'11111222,11111222,11144222' 
ADCP,ioos:station:NOAA.NDBC:WDEL1:1,2016-07-03T08:30:00Z,28.6620,-89.5510,41.0,1.9,239.0,99.0,'11111222,11111222,11144222' 
ADCP,ioos:station:NOAA.NDBC:WDEL1:1,2016-07-03T09:30:00Z,28.6620,-89.5510,41.0,1.6,226.0,99.0,'11111222,11111222,11144222' 
ADCP,ioos:station:NOAA.NDBC:WDEL1:1,2016-07-03T10:30:00Z,28.6620,-89.5510,41.0,2.1,246.0,99.0,'11111222,11111222,11144222' 
ADCP,ioos:station:NOAA.NDBC:WDEL1:1,2016-07-03T11:30:00Z,28.6620,-89.5510,41.0,0.9,256.0,99.0,'11111222,11111222,11144222' 
ADCP,ioos:station:NOAA.NDBC:WDEL1:1,2016-07-03T12:30:00Z,28.6620,-89.5510,41.0,1.8,225.0,99.0,'11111222,11111222,11144222' 
ADCP,ioos:station:NOAA.NDBC:WDEL1:1,2016-07-03T13:30:00Z,28.6620,-89.5510,41.0,1.1,225.0,99.0,'11111222,11111222,11144222' 
ADCP,ioos:station:NOAA.NDBC:WDEL1:1,2016-07-03T14:30:00Z,28.6620,-89.5510,41.0,3.7,228.0,99.0,'11111222,11111222,11144222' 
ADCP,ioos:station:NOAA.NDBC:WDEL1:1,2016-07-03T15:30:00Z,28.6620,-89.5510,41.0,2.9,226.0,99.0,'11111222,11111222,11144222' 
ADCP,ioos:station:NOAA.NDBC:WDEL1:1,2016-07-03T16:30:00Z,28.6620,-89.5510,41.0,2.8,234.0,99.0,'11111222,11111222,11144222' 
ADCP,ioos:station:NOAA.NDBC:WDEL1:1,2016-07-03T17:30:00Z,28.6620,-89.5510,41.0,2.9,226.0,99.0,'11111222,11111222,11144222' 
ADCP,ioos:station:NOAA.NDBC:WDEL1:1,2016-07-03T18:30:00Z,28.6620,-89.5510,41.0,3.3,232.0,99.0,'11111222,11111222,11144222' 
ADCP,ioos:station:NOAA.NDBC:WDEL1:1,2016-07-03T19:30:00Z,28.6620,-89.5510,41.0,3.6,247.0,99.0,'11111222,11111222,11144222' 
ADCP,ioos:station:NOAA.NDBC:WDEL1:1,2016-07-03T20:30:00Z,28.6620,-89.5510,41.0,3.5,248.0,99.0,'11111222,11111222,11144222' 
ADCP,ioos:station:NOAA.NDBC:WDEL1:1,2016-07-03T21:30:00Z,28.6620,-89.5510,41.0,2.9,247.0,99.0,'11111222,11111222,11144222' 
ADCP,ioos:station:NOAA.NDBC:WDEL1:1,2016-07-03T22:30:00Z,28.6620,-89.5510,41.0,2.6,242.0,99.0,'11111222,11111222,11144222' 
ADCP,ioos:station:NOAA.NDBC:WDEL1:1,2016-07-03T23:30:00Z,28.6620,-89.5510,41.0,2.1,228.0,99.0,'11111222,11111222,11144222' 
ADCP,ioos:station:NOAA.NDBC:WDEL1:1,2016-07-04T00:30:00Z,28.6620,-89.5510,41.0,1.7,201.0,99.0,'11111222,11111222,11144222' 
ADCP,ioos:station:NOAA.NDBC:WDEL1:1,2016-07-04T01:30:00Z,28.6620,-89.5510,41.0,2.0,208.0,99.0,'11111222,11111222,11144222' 
ADCP,ioos:station:NOAA.NDBC:WDEL1:1,2016-07-04T02:30:00Z,28.6620,-89.5510,41.0,2.6,191.0,99.0,'11111222,11111222,11144222' 
ADCP,ioos:station:NOAA.NDBC:WDEL1:1,2016-07-04T03:30:00Z,28.6620,-89.5510,41.0,3.2,191.0,99.0,'11111222,11111222,11144222' 
ADCP,ioos:station:NOAA.NDBC:WDEL1:1,2016-07-04T04:30:00Z,28.6620,-89.5510,41.0,3.2,182.0,99.0,'11111222,11111222,11144222' 
ADCP,ioos:station:NOAA.NDBC:WDEL1:1,2016-07-04T05:30:00Z,28.6620,-89.5510,41.0,3.9,185.0,99.0,'11111222,11111222,11144222' 
ADCP,ioos:station:NOAA.NDBC:WDEL1:1,2016-07-04T06:30:00Z,28.6620,-89.5510,41.0,4.3,190.0,99.0,'11111222,11111222,11144222' 
ADCP,ioos:station:NOAA.NDBC:WDEL1:1,2016-07-04T07:30:00Z,28.6620,-89.5510,41.0,4.1,195.0,99.0,'11111222,11111222,11144222' 
ADCP,ioos:station:NOAA.NDBC:WDEL1:1,2016-07-04T08:30:00Z,28.6620,-89.5510,41.0,3.8,202.0,99.0,'11111222,11111222,11144222' 
ADCP,ioos:station:NOAA.NDBC:WDEL1:1,2016-07-04T09:30:00Z,28.6620,-89.5510,41.0,3.9,211.0,99.0,'11111222,11111222,11144222' 
ADCP,ioos:station:NOAA.NDBC:WDEL1:1,2016-07-04T10:30:00Z,28.6620,-89.5510,41.0,4.2,205.0,99.0,'11111222,11111222,11144222' 
ADCP,ioos:station:NOAA.NDBC:WDEL1:1,2016-07-04T11:30:00Z,28.6620,-89.5510,41.0,3.6,228.0,99.0,'11111222,11111222,11144222' 
ADCP,ioos:station:NOAA.NDBC:WDEL1:1,2016-07-04T12:30:00Z,28.6620,-89.5510,41.0,3.3,215.0,99.0,'11111222,11111222,11144222' 
ADCP,ioos:station:NOAA.NDBC:WDEL1:1,2016-07-04T13:30:00Z,28.6620,-89.5510,41.0,2.9,212.0,99.0,'11111222,11111222,11144222' 
ADCP,ioos:station:NOAA.NDBC:WDEL1:1,2016-07-04T14:30:00Z,28.6620,-89.5510,41.0,2.7,201.0,99.0,'11111222,11111222,11144222' 
ADCP,ioos:station:NOAA.NDBC:WDEL1:1,2016-07-04T15:30:00Z,28.6620,-89.5510,41.0,3.1,212.0,99.0,'11111222,11111222,11144222' 
ADCP,ioos:station:NOAA.NDBC:WDEL1:1,2016-07-04T16:30:00Z,28.6620,-89.5510,41.0,2.8,219.0,99.0,'11111222,11111222,11144222' 
ADCP,ioos:station:NOAA.NDBC:WDEL1:1,2016-07-04T17:30:00Z,28.6620,-89.5510,41.0,3.0,201.0,99.0,'11111222,11111222,11144222' 
ADCP,ioos:station:NOAA.NDBC:WDEL1:1,2016-07-04T18:30:00Z,28.6620,-89.5510,41.0,2.7,223.0,99.0,'11111222,11111222,11144222' 
ADCP,ioos:station:NOAA.NDBC:WDEL1:1,2016-07-04T19:30:00Z,28.6620,-89.5510,41.0,3.1,221.0,99.0,'11111222,11111222,11144222' 
ADCP,ioos:station:NOAA.NDBC:WDEL1:1,2016-07-04T20:30:00Z,28.6620,-89.5510,41.0,3.3,225.0,99.0,'11111222,11111222,11144222' 
ADCP,ioos:station:NOAA.NDBC:WDEL1:1,2016-07-04T21:30:00Z,28.6620,-89.5510,41.0,2.5,210.0,99.0,'11111222,11111222,11144222' 
ADCP,ioos:station:NOAA.NDBC:WDEL1:1,2016-07-04T22:30:00Z,28.6620,-89.5510,41.0,2.7,212.0,99.0,'11111222,11111222,11144222' 
ADCP,ioos:station:NOAA.NDBC:WDEL1:1,2016-07-04T23:30:00Z,28.6620,-89.5510,41.0,2.4,210.0,99.0,'11111222,11111222,11144222' 
ADCP,ioos:station:NOAA.NDBC:WDEL1:1,2016-07-05T00:30:00Z,28.6620,-89.5510,41.0,2.7,205.0,99.0,'11111222,11111222,11144222' 
ADCP,ioos:station:NOAA.NDBC:WDEL1:1,2016-07-05T01:30:00Z,28.6620,-89.5510,41.0,2.6,197.0,99.0,'11111222,11111222,11144222' 
ADCP,ioos:station:NOAA.NDBC:WDEL1:1,2016-07-05T02:30:00Z,28.6620,-89.5510,41.0,2.6,196.0,99.0,'11111222,11111222,11144222' 
ADCP,ioos:station:NOAA.NDBC:WDEL1:1,2016-07-05T03:30:00Z,28.6620,-89.5510,41.0,3.1,188.0,99.0,'11111222,11111222,11144222' 
ADCP,ioos:station:NOAA.NDBC:WDEL1:1,2016-07-05T04:30:00Z,28.6620,-89.5510,41.0,3.1,186.0,99.0,'11111222,11111222,11144222' 
ADCP,ioos:station:NOAA.NDBC:WDEL1:1,2016-07-05T05:30:00Z,28.6620,-89.5510,41.0,3.2,193.0,99.0,'11111222,11111222,11144222' 
ADCP,ioos:station:NOAA.NDBC:WDEL1:1,2016-07-05T06:30:00Z,28.6620,-89.5510,41.0,3.4,202.0,99.0,'11111222,11111222,11144222' 
ADCP,ioos:station:NOAA.NDBC:WDEL1:1,2016-07-05T07:30:00Z,28.6620,-89.5510,41.0,3.9,198.0,99.0,'11111222,11111222,11144222' 
ADCP,ioos:station:NOAA.NDBC:WDEL1:1,2016-07-05T08:30:00Z,28.6620,-89.5510,41.0,4.1,198.0,99.0,'11111222,11111222,11144222' 
ADCP,ioos:station:NOAA.NDBC:WDEL1:1,2016-07-05T09:30:00Z,28.6620,-89.5510,41.0,4.0,201.0,99.0,'11111222,11111222,11144222' 
ADCP,ioos:station:NOAA.NDBC:WDEL1:1,2016-07-05T10:30:00Z,28.6620,-89.5510,41.0,3.3,205.0,99.0,'11111222,11111222,11144222' 
ADCP,ioos:station:NOAA.NDBC:WDEL1:1,2016-07-05T11:30:00Z,28.6620,-89.5510,41.0,3.6,209.0,99.0,'11111222,11111222,11144222' 
ADCP,ioos:station:NOAA.NDBC:WDEL1:1,2016-07-05T12:30:00Z,28.6620,-89.5510,41.0,3.6,215.0,99.0,'11111222,11111222,11144222' 
ADCP,ioos:station:NOAA.NDBC:WDEL1:1,2016-07-05T13:30:00Z,28.6620,-89.5510,41.0,3.3,223.0,99.0,'11111222,11111222,11144222' 
ADCP,ioos:station:NOAA.NDBC:WDEL1:1,2016-07-05T14:30:00Z,28.6620,-89.5510,41.0,3.1,217.0,99.0,'11111222,11111222,11144222' 
ADCP,ioos:station:NOAA.NDBC:WDEL1:1,2016-07-05T15:30:00Z,28.6620,-89.5510,41.0,3.0,214.0,99.0,'11111222,11111222,11144222' 
ADCP,ioos:station:NOAA.NDBC:WDEL1:1,2016-07-05T16:30:00Z,28.6620,-89.5510,41.0,2.9,225.0,99.0,'11111222,11111222,11144222' 
ADCP,ioos:station:NOAA.NDBC:WDEL1:1,2016-07-05T17:30:00Z,28.6620,-89.5510,41.0,2.6,234.0,99.0,'11111222,11111222,11144222' 
ADCP,ioos:station:NOAA.NDBC:WDEL1:1,2016-07-05T18:30:00Z,28.6620,-89.5510,41.0,3.0,233.0,99.0,'11111222,11111222,11144222' 
ADCP,ioos:station:NOAA.NDBC:WDEL1:1,2016-07-05T19:30:00Z,28.6620,-89.5510,41.0,2.5,240.0,99.0,'11111222,11111222,11144222' 
ADCP,ioos:station:NOAA.NDBC:WDEL1:1,2016-07-05T20:30:00Z,28.6620,-89.5510,41.0,2.8,246.0,99.0,'11111222,11111222,11144222' 
ADCP,ioos:station:NOAA.NDBC:WDEL1:1,2016-07-05T21:30:00Z,28.6620,-89.5510,41.0,2.1,235.0,99.0,'11111222,11111222,11144222' 
ADCP,ioos:station:NOAA.NDBC:WDEL1:1,2016-07-05T22:30:00Z,28.6620,-89.5510,41.0,1.8,238.0,99.0,'11111222,11111222,11144222' 
ADCP,ioos:station:NOAA.NDBC:WDEL1:1,2016-07-05T23:30:00Z,28.6620,-89.5510,41.0,1.7,221.0,99.0,'11111222,11111222,11144222' 
ADCP,ioos:station:NOAA.NDBC:WDEL1:1,2016-07-06T00:30:00Z,28.6620,-89.5510,41.0,1.4,217.0,99.0,'11111222,11111222,11144222' 
ADCP,ioos:station:NOAA.NDBC:WDEL1:1,2016-07-06T01:30:00Z,28.6620,-89.5510,41.0,1.7,207.0,99.0,'11111222,11111222,11144222' 
ADCP,ioos:station:NOAA.NDBC:WDEL1:1,2016-07-06T02:30:00Z,28.6620,-89.5510,41.0,1.8,194.0,99.0,'11111222,11111222,11144222' 
ADCP,ioos:station:NOAA.NDBC:WDEL1:1,2016-07-06T03:30:00Z,28.6620,-89.5510,41.0,2.3,192.0,99.0,'11111222,11111222,11144222' 
ADCP,ioos:station:NOAA.NDBC:WDEL1:1,2016-07-06T04:30:00Z,28.6620,-89.5510,41.0,2.7,191.0,99.0,'11111222,11111222,11144222' 
ADCP,ioos:station:NOAA.NDBC:WDEL1:1,2016-07-06T05:30:00Z,28.6620,-89.5510,41.0,3.3,186.0,99.0,'11111222,11111222,11144222' 
ADCP,ioos:station:NOAA.NDBC:WDEL1:1,2016-07-06T06:30:00Z,28.6620,-89.5510,41.0,3.3,192.0,99.0,'11111222,11111222,11144222' 
ADCP,ioos:station:NOAA.NDBC:WDEL1:1,2016-07-06T07:30:00Z,28.6620,-89.5510,41.0,3.2,194.0,99.0,'11111222,11111222,11144222' 
ADCP,ioos:station:NOAA.NDBC:WDEL1:1,2016-07-06T08:30:00Z,28.6620,-89.5510,41.0,3.7,196.0,99.0,'11111222,11111222,11144222' 
ADCP,ioos:station:NOAA.NDBC:WDEL1:1,2016-07-06T09:30:00Z,28.6620,-89.5510,41.0,3.3,197.0,99.0,'11111222,11111222,11144222' 
ADCP,ioos:station:NOAA.NDBC:WDEL1:1,2016-07-06T10:30:00Z,28.6620,-89.5510,41.0,3.0,206.0,99.0,'11111222,11111222,11144222' 
ADCP,ioos:station:NOAA.NDBC:WDEL1:1,2016-07-06T11:30:00Z,28.6620,-89.5510,41.0,2.7,185.0,99.0,'11111222,11111222,11144222' 
ADCP,ioos:station:NOAA.NDBC:WDEL1:1,2016-07-06T12:30:00Z,28.6620,-89.5510,41.0,2.7,188.0,99.0,'11111222,11111222,11144222' 
ADCP,ioos:station:NOAA.NDBC:WDEL1:1,2016-07-06T13:30:00Z,28.6620,-89.5510,41.0,2.3,202.0,99.0,'11111222,11111222,11144222' 
ADCP,ioos:station:NOAA.NDBC:WDEL1:1,2016-07-06T14:30:00Z,28.6620,-89.5510,41.0,2.3,203.0,99.0,'11111222,11111222,11144222' 
ADCP,ioos:station:NOAA.NDBC:WDEL1:1,2016-07-06T15:30:00Z,28.6620,-89.5510,41.0,1.9,191.0,99.0,'11111222,11111222,11144222' 
ADCP,ioos:station:NOAA.NDBC:WDEL1:1,2016-07-06T16:30:00Z,28.6620,-89.5510,41.0,1.3,176.0,99.0,'11111222,11111222,11144222' 
ADCP,ioos:station:NOAA.NDBC:WDEL1:1,2016-07-06T17:30:00Z,28.6620,-89.5510,41.0,1.2,181.0,99.0,'11111222,11111222,11144222' 
ADCP,ioos:station:NOAA.NDBC:WDEL1:1,2016-07-06T18:30:00Z,28.6620,-89.5510,41.0,1.2,186.0,99.0,'11111222,11111222,11144222' 
ADCP,ioos:station:NOAA.NDBC:WDEL1:1,2016-07-06T19:30:00Z,28.6620,-89.5510,41.0,1.0,175.0,99.0,'11111222,11111222,11144222' 
ADCP,ioos:station:NOAA.NDBC:WDEL1:1,2016-07-06T20:30:00Z,28.6620,-89.5510,41.0,1.2,163.0,99.0,'11111222,11111222,11144222' 
ADCP,ioos:station:NOAA.NDBC:WDEL1:1,2016-07-06T21:30:00Z,28.6620,-89.5510,41.0,1.2,163.0,99.0,'11111222,11111222,11144222' 
ADCP,ioos:station:NOAA.NDBC:WDEL1:1,2016-07-06T22:30:00Z,28.6620,-89.5510,41.0,1.2,168.0,99.0,'11111222,11111222,11144222' 
ADCP,ioos:station:NOAA.NDBC:WDEL1:1,2016-07-06T23:30:00Z,28.6620,-89.5510,41.0,1.1,187.0,99.0,'11111222,11111222,11144222' 
ADCP,ioos:station:NOAA.NDBC:WDEL1:1,2016-07-07T00:30:00Z,28.6620,-89.5510,41.0,1.2,137.0,99.0,'11111222,11111222,11144222' 
ADCP,ioos:station:NOAA.NDBC:WDEL1:1,2016-07-07T01:30:00Z,28.6620,-89.5510,41.0,1.2,151.0,99.0,'11111222,11111222,11144222' 
ADCP,ioos:station:NOAA.NDBC:WDEL1:1,2016-07-07T02:30:00Z,28.6620,-89.5510,41.0,1.6,142.0,99.0,'11111222,11111222,11144222' 
ADCP,ioos:station:NOAA.NDBC:WDEL1:1,2016-07-07T03:30:00Z,28.6620,-89.5510,41.0,1.4,145.0,99.0,'11111222,11111222,11144222' 
ADCP,ioos:station:NOAA.NDBC:WDEL1:1,2016-07-07T04:30:00Z,28.6620,-89.5510,41.0,1.9,143.0,99.0,'11111222,11111222,11144222' 
ADCP,ioos:station:NOAA.NDBC:WDEL1:1,2016-07-07T05:30:00Z,28.6620,-89.5510,41.0,2.0,150.0,99.0,'11111222,11111222,11144222' 
ADCP,ioos:station:NOAA.NDBC:WDEL1:1,2016-07-07T06:30:00Z,28.6620,-89.5510,41.0,2.2,156.0,99.0,'11111222,11111222,11144222' 
ADCP,ioos:station:NOAA.NDBC:WDEL1:1,2016-07-07T07:30:00Z,28.6620,-89.5510,41.0,2.1,170.0,99.0,'11111222,11111222,11144222' 
ADCP,ioos:station:NOAA.NDBC:WDEL1:1,2016-07-07T08:30:00Z,28.6620,-89.5510,41.0,2.4,171.0,99.0,'11111222,11111222,11144222' 
ADCP,ioos:station:NOAA.NDBC:WDEL1:1,2016-07-07T09:30:00Z,28.6620,-89.5510,41.0,2.4,165.0,99.0,'11111222,11111222,11144222' 
ADCP,ioos:station:NOAA.NDBC:WDEL1:1,2016-07-07T10:30:00Z,28.6620,-89.5510,41.0,2.4,186.0,99.0,'11111222,11111222,11144222' 
ADCP,ioos:station:NOAA.NDBC:WDEL1:1,2016-07-07T11:30:00Z,28.6620,-89.5510,41.0,2.3,201.0,99.0,'11111222,11111222,11144222' 
ADCP,ioos:station:NOAA.NDBC:WDEL1:1,2016-07-07T12:30:00Z,28.6620,-89.5510,41.0,2.1,197.0,99.0,'11111222,11111222,11144222' 
ADCP,ioos:station:NOAA.NDBC:WDEL1:1,2016-07-07T13:30:00Z,28.6620,-89.5510,41.0,1.1,205.0,99.0,'11111222,11111222,11144222' 
ADCP,ioos:station:NOAA.NDBC:WDEL1:1,2016-07-07T14:30:00Z,28.6620,-89.5510,41.0,1.8,179.0,99.0,'11111222,11111222,11144222' 
ADCP,ioos:station:NOAA.NDBC:WDEL1:1,2016-07-07T15:30:00Z,28.6620,-89.5510,41.0,1.4,164.0,99.0,'11111222,11111222,11144222' 
ADCP,ioos:station:NOAA.NDBC:WDEL1:1,2016-07-07T16:30:00Z,28.6620,-89.5510,41.0,1.5,159.0,99.0,'11111222,11111222,11144222' 
ADCP,ioos:station:NOAA.NDBC:WDEL1:1,2016-07-07T17:30:00Z,28.6620,-89.5510,41.0,1.9,183.0,99.0,'11111222,11111222,11144222' 
ADCP,ioos:station:NOAA.NDBC:WDEL1:1,2016-07-07T18:30:00Z,28.6620,-89.5510,41.0,2.0,174.0,99.0,'11111222,11111222,11144222' 
ADCP,ioos:station:NOAA.NDBC:WDEL1:1,2016-07-07T19:30:00Z,28.6620,-89.5510,41.0,1.3,168.0,99.0,'11111222,11111222,11144222' 
ADCP,ioos:station:NOAA.NDBC:WDEL1:1,2016-07-07T20:30:00Z,28.6620,-89.5510,41.0,1.5,165.0,99.0,'11111222,11111222,11144222' 
ADCP,ioos:station:NOAA.NDBC:WDEL1:1,2016-07-07T21:30:00Z,28.6620,-89.5510,41.0,1.8,177.0,99.0,'11111222,11111222,11144222' 
ADCP,ioos:station:NOAA.NDBC:WDEL1:1,2016-07-07T22:30:00Z,28.6620,-89.5510,41.0,1.6,184.0,99.0,'11111222,11111222,11144222' 
ADCP,ioos:station:NOAA.NDBC:WDEL1:1,2016-07-07T23:30:00Z,28.6620,-89.5510,41.0,1.6,180.0,99.0,'11111222,11111222,11144222' 
ADCP,ioos:station:NOAA.NDBC:WDEL1:1,2016-07-08T00:30:00Z,28.6620,-89.5510,41.0,1.5,158.0,99.0,'11111222,11111222,11144222' 
ADCP,ioos:station:NOAA.NDBC:WDEL1:1,2016-07-08T01:30:00Z,28.6620,-89.5510,41.0,1.9,184.0,99.0,'11111222,11111222,11144222' 
ADCP,ioos:station:NOAA.NDBC:WDEL1:1,2016-07-08T02:30:00Z,28.6620,-89.5510,41.0,1.8,175.0,99.0,'11111222,11111222,11144222' 
ADCP,ioos:station:NOAA.NDBC:WDEL1:1,2016-07-08T03:30:00Z,28.6620,-89.5510,41.0,1.9,163.0,99.0,'11111222,11111222,11144222' 
ADCP,ioos:station:NOAA.NDBC:WDEL1:1,2016-07-08T04:30:00Z,28.6620,-89.5510,41.0,1.8,157.0,99.0,'11111222,11111222,11144222' 
ADCP,ioos:station:NOAA.NDBC:WDEL1:1,2016-07-08T05:30:00Z,28.6620,-89.5510,41.0,1.8,165.0,99.0,'11111222,11111222,11144222' 
ADCP,ioos:station:NOAA.NDBC:WDEL1:1,2016-07-08T06:30:00Z,28.6620,-89.5510,41.0,2.2,172.0,99.0,'11111222,11111222,11144222' 
ADCP,ioos:station:NOAA.NDBC:WDEL1:1,2016-07-08T07:30:00Z,28.6620,-89.5510,41.0,2.2,183.0,99.0,'11111222,11111222,11144222' 
ADCP,ioos:station:NOAA.NDBC:WDEL1:1,2016-07-08T08:30:00Z,28.6620,-89.5510,41.0,2.4,178.0,99.0,'11111222,11111222,11144222' 
ADCP,ioos:station:NOAA.NDBC:WDEL1:1,2016-07-08T09:30:00Z,28.6620,-89.5510,41.0,2.5,179.0,99.0,'11111222,11111222,11144222' 
ADCP,ioos:station:NOAA.NDBC:WDEL1:1,2016-07-08T10:30:00Z,28.6620,-89.5510,41.0,2.7,189.0,99.0,'11111222,11111222,11144222' 
ADCP,ioos:station:NOAA.NDBC:WDEL1:1,2016-07-08T11:30:00Z,28.6620,-89.5510,41.0,2.5,187.0,99.0,'11111222,11111222,11144222' 
ADCP,ioos:station:NOAA.NDBC:WDEL1:1,2016-07-08T12:30:00Z,28.6620,-89.5510,41.0,2.1,197.0,99.0,'11111222,11111222,11144222' 
ADCP,ioos:station:NOAA.NDBC:WDEL1:1,2016-07-08T13:30:00Z,28.6620,-89.5510,41.0,2.1,192.0,99.0,'11111222,11111222,11144222' 
ADCP,ioos:station:NOAA.NDBC:WDEL1:1,2016-07-08T14:30:00Z,28.6620,-89.5510,41.0,1.0,177.0,99.0,'11111222,11111222,11144222' 
ADCP,ioos:station:NOAA.NDBC:WDEL1:1,2016-07-08T15:30:00Z,28.6620,-89.5510,41.0,0.9,206.0,99.0,'11111222,11111222,11144222' 
ADCP,ioos:station:NOAA.NDBC:WDEL1:1,2016-07-08T16:30:00Z,28.6620,-89.5510,41.0,1.1,196.0,99.0,'11111222,11111222,11144222' 
ADCP,ioos:station:NOAA.NDBC:WDEL1:1,2016-07-08T17:30:00Z,28.6620,-89.5510,41.0,1.4,212.0,99.0,'11111222,11111222,11144222' 
ADCP,ioos:station:NOAA.NDBC:WDEL1:1,2016-07-08T18:30:00Z,28.6620,-89.5510,41.0,2.1,231.0,99.0,'11111222,11111222,11144222' 
ADCP,ioos:station:NOAA.NDBC:WDEL1:1,2016-07-08T19:30:00Z,28.6620,-89.5510,41.0,1.5,193.0,99.0,'11111222,11111222,11144222' 
ADCP,ioos:station:NOAA.NDBC:WDEL1:1,2016-07-08T20:30:00Z,28.6620,-89.5510,41.0,1.1,217.0,99.0,'11111222,11111222,11144222' 
ADCP,ioos:station:NOAA.NDBC:WDEL1:1,2016-07-08T21:30:00Z,28.6620,-89.5510,41.0,1.0,176.0,99.0,'11111222,11111222,11144222' 
ADCP,ioos:station:NOAA.NDBC:WDEL1:1,2016-07-08T22:30:00Z,28.6620,-89.5510,41.0,1.4,201.0,99.0,'11111222,11111222,11144222' 
ADCP,ioos:station:NOAA.NDBC:WDEL1:1,2016-07-08T23:30:00Z,28.6620,-89.5510,41.0,0.9,175.0,99.0,'11111222,11111222,11144222' 